Temperature
20 20 20 20 20 20 20 20 20 20 20 20 20 20 20 19 19 19 19 19 19 19 19 19 18 18 18 18 18 18 18 18 18 18 18 18 17 17 17 17 17 17 17
21 20 20 20 20 20 20 20 20 20 20 20 20 20 20 20 19 19 19 19 19 19 19 19 19 19 19 19 19 19 19 19 18 18 17 17 17 17 17 17 17 17 17
21 20 20 20 20 20 20 20 20 20 20 20 20 20 20 20 19 19 19 19 19 19 19 19 19 19 19 19 19 19 19 18 18 17 17 17 17 17 17 17 17 17 17
21 20 20 20 20 20 20 20 20 20 20 20 20 20 20 19 19 19 19 19 19 19 19 19 19 19 19 19 19 19 18 18 18 18 17 17 17 17 17 17 17 17 17
21 20 20 20 20 20 20 20 20 20 20 20 20 19 19 19 19 19 19 19 19 19 19 19 19 19 19 19 19 18 18 18 18 18 18 17 17 17 17 18 17 17 17
21 20 20 20 20 20 20 20 20 20 20 19 19 19 19 19 19 19 19 19 19 18 18 18 18 19 19 19 18 18 18 18 18 18 18 17 18 18 18 18 18 17 17
21 20 20 20 20 20 20 20 20 20 19 19 19 19 19 19 19 19 19 19 18 18 18 18 18 18 18 18 18 18 18 18 18 18 18 18 18 18 18 18 18 18 18
21 20 20 20 20 20 20 20 20 20 19 19 19 19 19 19 19 19 18 18 18 18 18 18 18 18 18 18 18 18 18 18 18 18 18 18 17 17 18 18 18 18 18
20 20 20 20 20 20 20 20 20 20 19 19 19 19 19 19 18 18 18 18 18 18 18 18 18 18 18 18 18 18 18 18 18 18 18 18 18 17 17 18 18 18 18
20 20 20 20 20 20 19 19 19 19 19 19 19 19 18 18 18 18 18 18 18 18 18 18 18 18 18 18 18 18 18 18 18 18 18 18 18 18 17 18 18 18 18
20 20 20 20 20 20 19 19 19 19 19 19 19 18 18 18 18 18 18 18 18 18 18 18 18 18 18 18 18 18 18 18 18 18 18 18 18 18 18 17 18 18 18
20 20 19 20 20 19 19 19 19 19 19 19 19 19 18 18 18 18 18 18 18 18 18 18 18 18 18 18 18 18 18 18 18 18 18 18 18 18 18 18 17 17 18
20 20 20 19 19 19 19 19 19 18 18 18 18 18 18 18 18 18 18 18 18 18 17 17 17 17 17 17 17 17 18 18 18 18 18 18 18 18 18 18 17 17 17
19 19 19 19 19 19 18 18 18 18 18 18 18 18 17 17 17 17 17 17 17 17 17 17 17 17 17 17 17 17 17 17 17 17 18 18 18 18 18 17 17 17 17
18 18 18 19 19 18 18 18 18 17 17 17 17 17 17 17 17 17 17 17 17 17 17 17 17 17 17 17 17 17 17 17 17 17 17 18 18 18 18 17 17 17 17
18 18 18 18 18 18 18 17 17 17 17 17 17 17 17 17 16 16 16 16 16 17 17 17 17 16 16 16 16 16 16 17 17 17 17 17 17 17 17 17 17 17 17
18 18 18 18 18 18 17 17 17 17 17 17 17 17 16 16 16 16 16 16 16 16 16 16 16 16 16 16 16 16 16 16 16 16 17 17 17 17 17 17 17 17 17
18 18 18 18 18 17 17 17 17 17 17 17 16 16 16 15 15 15 15 15 15 15 15 15 15 15 15 15 15 16 16 16 16 16 16 16 17 17 17 17 17 17 17
18 18 18 18 18 17 17 17 17 16 16 16 16 15 15 15 14 14 14 14 14 14 14 14 15 15 15 15 15 15 15 15 16 16 16 16 16 16 17 17 17 17 17
18 18 18 18 17 17 17 17 16 16 16 15 15 15 14 14 14 14 13 13 13 14 14 14 14 14 14 14 14 15 15 15 15 15 16 16 16 16 16 17 17 17 17
18 18 18 17 17 17 16 16 16 15 15 14 14 14 13 13 13 13 13 13 13 13 13 13 13 13 13 13 14 14 15 15 15 15 15 15 15 15 16 16 16 16 17
18 18 17 17 17 16 16 15 15 14 14 13 13 13 13 12 12 12 12 12 13 13 13 13 13 13 13 13 13 13 14 15 15 15 15 15 15 15 15 15 16 16 16
18 18 17 17 16 16 15 15 14 14 13 13 13 12 12 12 12 12 12 12 12 12 12 12 12 12 12 12 12 12 12 13 13 14 14 14 14 14 15 15 15 16 16
18 17 17 16 16 16 15 14 14 13 13 12 12 12 11 11 11 11 11 11 12 12 12 12 12 12 12 12 12 12 12 12 12 13 14 14 14 14 14 15 15 15 16
18 17 17 16 16 15 15 14 13 13 12 12 12 11 11 11 11 11 11 11 11 11 11 11 12 11 11 11 11 11 12 12 12 12 12 13 14 14 14 15 15 15 16
18 17 17 16 16 15 14 14 13 12 12 12 11 11 11 11 11 11 10 10 10 11 11 11 11 11 11 11 11 11 11 11 11 11 11 12 13 14 14 14 15 15 15
Wind_Speed
6 9 16 16 16 17 18 18 18 18 18 18 18 18 18 18 17 16 16 15 13 12 11 9 8 8 9 9 10 10 11 12 12 12 12 13 13 13 14 15 16 16 19
10 13 16 16 16 17 18 18 18 18 17 17 17 17 16 16 16 15 15 14 13 12 11 10 9 9 9 9 10 11 11 12 12 12 12 12 13 13 14 15 15 15 18
12 13 15 16 16 16 17 18 17 17 17 16 16 15 15 15 14 14 13 13 12 11 10 10 9 9 9 9 10 10 11 11 11 11 10 9 11 13 14 15 16 17 17
12 12 14 16 15 16 16 17 16 16 15 15 15 14 14 13 13 13 12 12 11 11 10 9 9 9 9 9 10 10 10 10 11 10 8 7 9 13 14 15 16 16 17
10 11 14 16 15 15 15 15 15 14 14 13 13 13 12 12 12 11 11 10 10 10 10 9 9 9 9 9 9 9 9 10 10 8 6 6 7 13 14 15 15 16 16
9 11 14 15 15 14 14 14 14 13 13 12 12 11 11 11 10 10 10 10 9 9 9 9 9 9 9 9 9 9 9 10 9 7 5 5 7 12 14 15 15 15 15
10 9 12 14 14 13 13 13 13 12 12 11 11 10 10 10 10 10 10 9 9 9 9 9 9 9 9 9 9 9 9 9 7 6 5 6 8 12 14 15 15 15 15
10 8 10 13 12 12 12 12 11 11 11 10 10 10 10 10 10 10 10 10 10 10 9 9 9 10 9 9 9 9 9 8 7 7 7 8 10 13 14 15 15 15 16
8 7 6 8 9 10 10 10 10 10 10 10 10 10 9 9 9 9 9 10 10 11 11 10 10 11 11 11 10 10 10 9 6 6 7 9 12 14 15 15 16 16 16
7 5 5 6 5 5 5 8 8 9 9 9 9 9 10 10 10 10 10 10 11 11 12 12 12 12 13 13 13 12 12 10 7 7 6 9 13 16 16 17 17 17 17
6 4 4 4 3 3 2 5 6 7 8 8 8 9 10 8 8 8 10 11 12 13 13 14 14 15 14 14 15 14 12 9 8 7 8 10 14 17 18 19 19 19 19
5 4 2 2 2 2 2 2 2 3 4 6 6 7 7 6 6 8 8 11 12 12 13 14 15 16 15 13 13 14 11 11 9 9 10 12 14 17 19 20 21 21 21
4 4 2 2 1 1 0 1 1 2 2 2 4 5 5 3 3 4 4 6 7 8 8 9 10 10 11 11 11 12 12 12 11 11 12 15 16 18 20 22 23 23 23
6 5 4 3 3 2 2 2 1 1 1 1 2 3 2 1 1 2 2 3 4 4 5 6 6 8 10 11 12 11 12 12 11 12 14 17 18 19 20 22 24 25 25
7 6 5 5 5 4 3 2 3 3 2 2 3 3 1 1 1 1 1 2 3 3 4 4 5 6 6 8 10 11 11 12 14 15 14 18 20 20 21 22 25 26 27
7 5 5 5 5 5 4 2 2 2 3 3 3 4 2 1 0 1 1 1 2 3 3 4 4 5 5 5 7 9 10 12 14 16 16 17 20 21 21 23 24 27 28
5 4 4 5 4 5 4 2 3 2 3 2 3 3 3 2 1 1 1 1 2 3 4 4 4 4 4 5 6 8 8 11 13 15 17 17 17 20 21 22 24 26 28
5 4 3 4 4 4 3 3 3 3 3 3 3 4 4 2 1 1 1 1 2 3 2 3 3 3 4 4 5 6 7 8 11 13 15 16 16 16 18 21 23 25 27
5 5 4 4 4 3 3 3 3 3 3 4 4 4 4 4 3 1 1 2 3 2 2 3 2 2 4 5 6 6 7 8 10 11 12 14 16 16 16 17 21 24 26
5 4 4 3 2 2 2 2 2 3 3 4 4 4 5 5 5 3 2 3 3 2 2 2 3 2 3 4 6 7 7 8 8 10 12 11 14 17 17 16 16 18 24
5 4 4 3 2 2 1 1 1 2 2 3 3 5 6 6 6 4 3 3 2 2 3 3 2 3 2 2 3 5 5 7 8 8 8 9 11 13 16 16 15 15 16
6 6 5 4 3 2 1 1 1 0 2 2 3 5 6 6 7 5 3 4 3 3 4 3 1 2 2 1 2 3 4 4 3 6 7 8 9 8 11 14 15 15 16
8 8 6 5 4 3 2 1 2 2 3 3 3 3 5 7 7 6 5 4 4 3 3 4 2 2 2 2 1 2 3 3 5 3 4 5 6 7 8 8 13 16 18
9 6 6 5 5 4 3 2 1 1 3 4 3 4 6 6 6 6 5 4 3 2 3 4 3 2 2 2 2 2 3 4 4 5 3 3 4 7 8 9 10 12 17
6 5 5 5 4 3 3 3 3 3 4 3 4 6 6 5 5 5 5 3 3 2 3 4 3 3 2 3 2 2 2 3 4 4 5 4 4 4 6 7 8 8 13
4 4 4 4 3 3 3 3 4 5 5 5 6 5 5 4 5 5 5 3 3 3 3 3 3 4 4 4 3 3 2 2 2 3 4 6 6 5 5 5 6 7 9
Wind_Direction
146 152 149 143 135 130 126 121 119 118 119 119 122 127 133 139 144 148 152 154 155 154 150 144 137 132 130 128 125 123 121 123 126 125 124 123 121 121 121 121 118 119 120
141 150 150 144 138 133 129 126 124 124 125 126 128 131 135 140 145 150 154 156 158 158 154 149 144 140 137 135 133 131 131 132 134 133 131 128 127 126 124 124 122 126 125
138 147 149 146 141 137 134 131 130 130 131 133 135 138 141 145 150 154 158 161 162 161 159 155 150 147 145 142 141 140 140 141 142 136 125 124 131 131 131 130 131 130 130
138 142 149 149 144 142 139 136 136 136 137 139 141 144 147 151 155 158 162 165 167 167 166 163 160 156 153 151 149 149 148 146 142 130 120 127 137 140 138 138 136 135 134
131 138 153 152 149 146 143 141 141 142 144 146 148 150 154 157 161 165 169 172 175 176 175 173 171 167 163 161 159 158 157 153 147 134 131 130 137 148 146 144 142 140 139
126 139 155 153 152 151 149 149 149 150 152 155 158 161 164 168 173 177 180 184 188 190 189 186 182 179 175 173 172 172 170 167 153 140 147 147 152 157 154 153 151 148 147
129 135 152 152 154 155 156 157 158 160 163 167 171 175 180 184 189 192 194 199 204 206 204 200 194 190 187 186 186 186 187 184 157 157 167 172 176 171 165 163 159 157 155
133 128 145 154 156 160 163 165 166 169 173 179 184 189 195 200 205 208 209 211 216 219 218 215 209 202 200 199 200 200 203 203 184 178 182 184 189 185 178 173 169 166 164
124 116 120 141 155 163 169 174 177 181 185 191 197 202 207 212 217 222 223 223 225 228 228 227 222 216 211 210 209 210 212 216 197 185 194 192 195 195 190 184 180 177 174
113 105 101 111 126 145 172 187 191 195 199 205 212 218 222 225 228 232 234 236 237 238 238 237 233 228 221 217 216 216 218 220 211 204 205 202 201 202 200 194 190 187 183
121 95 86 95 106 124 173 207 211 215 218 221 229 234 236 240 246 248 248 248 249 248 246 243 241 237 233 229 224 222 224 221 212 214 214 213 210 209 208 203 199 195 192
131 116 88 95 111 138 194 237 247 246 241 236 242 248 253 252 254 257 262 262 262 260 258 252 246 244 241 235 233 229 225 219 217 220 223 223 221 219 216 210 205 201 198
119 110 115 114 114 140 34 19 354 330 308 287 268 257 254 257 265 270 274 277 280 278 274 270 258 246 241 235 230 228 227 223 224 224 225 226 227 226 224 218 211 207 203
96 83 72 87 93 68 38 20 12 20 6 335 296 277 260 253 261 265 270 283 284 282 282 276 264 253 245 237 232 229 233 231 232 231 228 229 228 229 228 226 219 213 208
91 80 65 68 80 83 68 36 41 33 28 9 348 342 289 239 260 273 273 287 288 287 283 282 270 263 255 246 239 234 234 234 235 234 234 233 230 230 231 230 226 220 214
99 92 84 78 82 86 86 82 64 50 38 33 16 3 6 23 307 324 322 319 310 305 293 285 279 273 266 255 252 244 239 238 239 236 235 237 235 232 232 233 230 225 220
113 110 102 95 87 95 96 91 85 69 55 36 14 6 16 31 23 8 343 325 317 318 309 298 289 277 271 263 259 256 247 241 240 238 235 234 234 234 233 234 232 228 223
137 136 131 123 120 119 120 102 85 67 53 31 14 8 4 354 355 11 311 302 316 322 318 307 296 293 283 276 269 263 256 250 247 244 238 233 229 230 232 234 234 230 225
168 167 161 151 146 127 104 82 67 52 37 20 13 4 355 351 348 348 311 307 325 324 320 314 312 288 288 288 282 269 257 252 251 249 241 235 230 226 225 231 234 231 227
187 187 175 164 145 115 90 65 38 27 16 14 9 355 352 351 349 344 318 316 330 321 314 312 300 287 274 284 292 283 266 255 249 244 243 239 232 228 225 228 230 232 228
200 203 204 189 183 143 91 75 39 344 335 341 341 345 345 346 346 335 317 314 314 291 287 297 295 299 292 300 303 296 280 256 247 245 241 237 232 228 224 224 225 226 227
210 214 215 213 206 197 162 151 161 255 302 294 310 324 335 343 342 336 324 307 299 285 290 292 279 301 299 318 307 309 314 313 275 248 237 237 237 229 225 225 223 221 224
221 218 216 215 213 211 186 115 50 18 349 335 325 320 324 330 328 323 314 303 293 262 264 268 256 240 276 302 267 282 306 309 320 289 251 245 242 233 231 225 224 223 223
226 215 208 209 212 213 182 166 193 246 274 272 282 292 304 312 316 316 312 308 297 273 260 263 244 229 229 269 292 256 252 268 290 310 303 276 263 249 238 231 230 226 222
213 201 202 202 212 212 195 193 212 245 253 276 290 293 298 303 306 307 307 302 302 289 274 266 260 236 223 233 248 269 274 273 258 282 301 319 311 269 250 236 228 224 221
180 176 178 187 219 225 218 219 224 250 268 284 289 291 295 300 302 305 303 294 293 291 290 281 261 247 234 236 243 242 245 262 282 286 295 309 308 296 272 245 233 228 222
Height
1517 1521 1524 1526 1529 1531 1533 1534 1536 1538 1539 1541 1542 1543 1544 1545 1546 1547 1548 1549 1549 1550 1551 1552 1552 1553 1553 1553 1554 1554 1555 1555 1556 1556 1557 1557 1558 1559 1560 1561 1562 1563 1565
1517 1521 1525 1528 1530 1532 1534 1536 1537 1539 1540 1542 1543 1544 1545 1546 1547 1548 1549 1550 1550 1551 1552 1553 1553 1554 1554 1554 1555 1555 1555 1556 1557 1557 1558 1559 1560 1561 1562 1563 1564 1565 1567
1519 1522 1526 1529 1532 1534 1536 1537 1539 1540 1542 1543 1544 1545 1546 1547 1548 1549 1550 1550 1551 1552 1553 1553 1554 1554 1555 1555 1556 1556 1557 1557 1558 1559 1560 1561 1562 1563 1564 1565 1566 1567 1569
1520 1524 1527 1530 1533 1535 1537 1539 1540 1542 1543 1544 1545 1546 1547 1548 1549 1549 1550 1551 1552 1553 1553 1554 1555 1555 1556 1556 1557 1557 1558 1558 1559 1560 1561 1562 1563 1564 1565 1567 1568 1569 1571
1521 1525 1528 1531 1534 1536 1538 1540 1542 1543 1544 1545 1546 1547 1548 1548 1549 1550 1551 1552 1552 1553 1554 1555 1555 1556 1556 1557 1558 1558 1559 1560 1561 1561 1562 1563 1564 1566 1567 1568 1569 1571 1572
1523 1526 1530 1533 1535 1537 1539 1541 1542 1544 1545 1546 1547 1547 1548 1549 1549 1550 1551 1552 1553 1553 1554 1555 1556 1556 1557 1558 1558 1559 1560 1561 1562 1563 1563 1564 1565 1567 1568 1569 1571 1572 1574
1524 1528 1531 1534 1537 1539 1540 1542 1543 1544 1545 1546 1547 1547 1548 1549 1549 1550 1551 1552 1553 1554 1554 1555 1556 1557 1557 1558 1559 1560 1561 1562 1563 1563 1564 1565 1566 1567 1569 1570 1572 1573 1575
1526 1529 1532 1535 1538 1540 1541 1543 1544 1545 1546 1546 1547 1547 1548 1548 1549 1550 1550 1551 1552 1553 1554 1555 1556 1556 1557 1558 1559 1560 1561 1562 1563 1564 1565 1566 1567 1568 1569 1571 1572 1574 1575
1528 1531 1533 1536 1538 1540 1542 1543 1544 1545 1546 1546 1547 1547 1547 1548 1548 1549 1549 1550 1551 1552 1553 1554 1555 1555 1556 1557 1558 1559 1560 1562 1563 1564 1564 1565 1566 1568 1569 1571 1572 1574 1576
1530 1532 1535 1537 1539 1541 1543 1544 1545 1545 1545 1546 1546 1546 1547 1547 1547 1548 1548 1549 1549 1550 1551 1552 1553 1554 1555 1556 1557 1558 1559 1560 1561 1562 1564 1565 1566 1567 1568 1570 1572 1573 1575
1531 1533 1536 1538 1540 1541 1543 1544 1544 1544 1545 1545 1545 1546 1546 1546 1546 1546 1547 1547 1547 1548 1549 1550 1550 1551 1553 1554 1555 1556 1557 1558 1559 1560 1562 1563 1565 1566 1567 1569 1571 1572 1574
1532 1534 1537 1538 1540 1541 1542 1543 1544 1544 1544 1544 1544 1544 1544 1544 1544 1544 1545 1545 1545 1546 1546 1547 1547 1548 1549 1550 1551 1553 1554 1555 1556 1558 1559 1561 1563 1564 1565 1567 1569 1571 1573
1533 1534 1537 1538 1540 1541 1542 1542 1543 1542 1542 1543 1542 1543 1543 1542 1542 1542 1542 1542 1542 1543 1543 1543 1544 1544 1545 1546 1547 1548 1549 1551 1552 1554 1556 1558 1559 1561 1563 1565 1566 1568 1571
1533 1535 1537 1538 1539 1541 1542 1542 1542 1541 1541 1541 1541 1541 1541 1540 1540 1540 1540 1539 1539 1539 1539 1540 1540 1540 1541 1542 1542 1543 1544 1546 1547 1549 1551 1553 1555 1557 1559 1561 1563 1566 1568
1534 1535 1537 1538 1539 1540 1541 1541 1541 1540 1540 1540 1539 1539 1538 1538 1538 1537 1537 1536 1536 1536 1536 1535 1535 1535 1536 1536 1537 1538 1539 1540 1542 1543 1545 1547 1549 1552 1554 1556 1559 1561 1564
1534 1535 1537 1538 1539 1539 1540 1540 1539 1539 1539 1538 1538 1537 1536 1535 1535 1534 1534 1533 1533 1532 1532 1531 1530 1530 1531 1531 1531 1532 1532 1534 1535 1537 1538 1540 1543 1545 1548 1551 1553 1556 1559
1535 1536 1537 1538 1539 1539 1540 1540 1539 1539 1538 1537 1536 1535 1534 1533 1532 1531 1530 1530 1529 1528 1528 1527 1526 1526 1526 1526 1526 1526 1526 1527 1528 1529 1531 1533 1536 1538 1541 1544 1547 1550 1553
1536 1537 1537 1538 1539 1539 1540 1539 1539 1538 1537 1535 1534 1533 1532 1530 1529 1528 1527 1526 1526 1525 1524 1523 1522 1521 1521 1520 1520 1520 1520 1520 1521 1522 1524 1525 1528 1531 1534 1537 1541 1544 1547
1536 1537 1537 1538 1539 1539 1539 1539 1538 1537 1535 1533 1532 1530 1529 1528 1526 1525 1524 1523 1523 1522 1521 1520 1518 1517 1516 1516 1515 1514 1514 1513 1514 1515 1515 1517 1519 1522 1526 1530 1534 1537 1541
1536 1537 1538 1538 1539 1539 1538 1538 1537 1535 1533 1531 1529 1528 1526 1525 1523 1522 1521 1520 1520 1519 1518 1517 1516 1514 1513 1511 1510 1509 1508 1507 1507 1507 1508 1509 1511 1514 1518 1522 1526 1530 1533
1535 1536 1537 1537 1538 1538 1537 1536 1535 1533 1531 1529 1527 1525 1523 1522 1520 1519 1518 1517 1517 1516 1515 1514 1513 1512 1510 1508 1506 1504 1503 1502 1501 1500 1501 1501 1502 1505 1509 1513 1518 1522 1526
1534 1535 1536 1536 1536 1536 1535 1534 1532 1530 1528 1526 1524 1522 1520 1518 1517 1516 1515 1514 1513 1513 1512 1511 1510 1509 1508 1506 1504 1502 1500 1499 1497 1496 1496 1495 1496 1498 1501 1505 1510 1514 1518
1533 1534 1534 1535 1534 1534 1533 1531 1530 1528 1526 1524 1521 1519 1517 1515 1514 1513 1511 1510 1510 1509 1509 1508 1507 1506 1505 1505 1503 1502 1500 1497 1495 1493 1492 1491 1491 1492 1495 1498 1502 1506 1510
1531 1532 1532 1532 1532 1531 1530 1529 1527 1525 1523 1521 1518 1516 1514 1513 1511 1509 1508 1507 1506 1505 1505 1504 1504 1503 1503 1502 1501 1500 1500 1498 1496 1491 1490 1489 1488 1489 1490 1493 1496 1499 1503
1529 1529 1530 1530 1529 1528 1527 1526 1524 1522 1520 1518 1516 1513 1511 1510 1508 1506 1504 1503 1502 1501 1501 1501 1500 1500 1499 1499 1498 1497 1496 1495 1494 1492 1488 1486 1485 1485 1485 1487 1489 1492 1496
1526 1527 1527 1527 1526 1525 1524 1523 1521 1519 1517 1515 1512 1510 1508 1506 1504 1502 1501 1499 1498 1497 1497 1496 1496 1496 1495 1495 1494 1494 1493 1492 1491 1490 1487 1484 1482 1481 1481 1482 1484 1487 1490